Hourly Data Report for October 20, 2016

All times are specified in Local Standard Time (LST). Add 1 hour to adjust for Daylight Saving Time where and when it is observed.

RANKIN INLET A
NUNAVUT

62°48'38.000" N
92°06'53.000" W
32.30 m
2303405
71083
YRT

Download Data

Hourly Data (October 2016)
Hourly Data Report for October 20, 2016
Temp Definition
°C
Dew Point Temp Definition
°C
Rel Hum Definition
%
Wind Dir Definition
10's deg

Wind Spd Definition
km/h
Visibility Definition
km
Stn Press Definition
kPa
Hmdx Definition


Wind Chill Definition


Weather Definition


TIME
00:00 Legend Double Dagger -1.2 -4.2 80 24 35 24.1 101.53   -9 Cloudy
01:00 Legend Double Dagger -1.5 -3.9 84 24 31 16.1 101.52   -9 Snow
02:00 Legend Double Dagger -1.5 -3.5 86 24 32 16.1 101.50   -9 Snow
03:00 Legend Double Dagger -1.4 -3.1 88 24 30 16.1 101.46   -8 Snow
04:00 Legend Double Dagger -1.2 -2.5 91 25 26 24.1 101.48   -8 Snow
05:00 Legend Double Dagger -1.0 -2.3 91 26 23 24.1 101.45   -7 Snow
06:00 Legend Double Dagger -0.7 -2.0 91 26 21 24.1 101.45   -6 Snow
07:00 Legend Double Dagger -0.7 -1.8 92 26 20 24.1 101.41   -6 Snow
08:00 Legend Double Dagger -0.8 -1.8 93 26 18 12.9 101.38   -6 Snow
09:00 Legend Double Dagger -0.7 -1.6 94 26 20 4.8 101.35   -6 Snow,Fog
10:00 Legend Double Dagger -0.8 -1.7 94 26 17 4.8 101.36   -6 Snow,Fog
11:00 Legend Double Dagger -0.8 -1.8 93 26 19 9.7 101.32   -6 Snow,Fog
12:00 Legend Double Dagger -0.6 -1.7 92 25 19 9.7 101.31   -6 Snow,Fog
13:00 Legend Double Dagger -0.7 -1.8 92 25 17 16.1 101.27   -6 Snow
14:00 Legend Double Dagger -0.8 -2.1 91 24 18 16.1 101.25   -6 Snow
15:00 Legend Double Dagger -1.1 -2.4 91 22 19 24.1 101.22   -6 Cloudy
16:00 Legend Double Dagger -1.7 -3.1 90 23 22 24.1 101.22   -8 LegendNANA
17:00 Legend Double Dagger -1.7 -3.1 90 23 21 24.1 101.18   -8 LegendNANA
18:00 Legend Double Dagger -1.5 -2.9 90 23 22 24.1 101.12   -7 Cloudy
19:00 Legend Double Dagger -1.3 -2.9 89 23 19 24.1 101.07   -7 LegendNANA
20:00 Legend Double Dagger -1.6 -3.2 89 24 21 24.1 101.04   -7 LegendNANA
21:00 Legend Double Dagger -1.5 -3.1 89 24 18 24.1 101.01   -7 Cloudy
22:00 Legend Double Dagger -1.6 -3.6 86 25 22 24.1 100.96   -8 LegendNANA
23:00 Legend Double Dagger -2.0 -3.6 89 24 15 24.1 100.92   -7 LegendNANA

Notes on Data Quality.

Legend

  • E = Estimated
  • M = Missing
  • NA = Not Available
  • ‡ = Partner data that is not subject to review by the National Climate Archives
Date modified: